Monticello, KY

2:58 AM EST on December 16, 2019 (GMT -0500)
Wayne County

Weather History for KEKQ - September, 2019

Change the Weather History Date:

Tuesday, September 24, 2019

  Actual Average Record
Temperature  
Mean Temperature 64 °F -  
Max Temperature 80 °F 74 °F 92 °F (2007)
Min Temperature 46 °F 53 °F 34 °F (1983)
Degree Days  
Heating Degree Days 1    
Growing Degree Days 14 (Base 50)    
Moisture  
Dew Point 50 °F    
Average Humidity 69    
Maximum Humidity 100    
Minimum Humidity 30    
Precipitation  
Precipitation 0.00 in - - ()
Sea Level Pressure  
Sea Level Pressure 30.01 in    
Wind  
Wind Speed 9 mph (North)    
Max Wind Speed 17 mph    
Max Gust Speed 23 mph    
Visibility 10 miles    
Events      
Averages and records for this station are not official NWS values.
T = Trace of Precipitation, MM = Missing Value Source: NWS Daily Summary

Daily Weather History Graph

Daily Weather History Graph

Search for Another Location

Airport or City:

Astronomy

Sep. 24, 2019 Rise Set
Actual Time 6:28 AM CDT 6:33 PM CDT
Civil Twilight 6:02 AM CDT 6:59 PM CDT
Nautical Twilight 5:32 AM CDT 7:29 PM CDT
Astronomical Twilight 5:02 AM CDT 8:00 PM CDT
Moon 1:22 AM CDT (9/24) 4:10 PM CDT (9/24)
Length of Visible Light 12h 56m
Length of Day
12h 04m
Waning Crescent, 23% of the Moon is Illuminated
Sep 24
Waning Crescent
Sep 28
New
Oct 5
First Quarter
Oct 13
Full
Oct 21
Last Quarter

Hourly Weather History & Observations

Time (CDT) Temp. Dew Point Humidity Pressure Visibility Wind Dir Wind Speed Gust Speed Precip Events Conditions
12:56 AM 61.0 °F 60.1 °F 97% 30.02 in 10.0 mi NNE 13.8 mph - N/A   Partly Cloudy
1:56 AM 59.0 °F 57.0 °F 93% 30.02 in 10.0 mi Variable 3.5 mph - N/A   Clear
2:56 AM 55.0 °F 55.0 °F 100% 30.02 in 10.0 mi NE 8.1 mph - N/A   Clear
3:56 AM 53.1 °F 53.1 °F 100% 30.03 in 10.0 mi Variable 4.6 mph - N/A   Clear
4:56 AM 55.9 °F 54.0 °F 93% 30.03 in 10.0 mi NW 6.9 mph - N/A   Clear
5:56 AM 53.1 °F 52.0 °F 96% 30.05 in 10.0 mi NE 9.2 mph - N/A   Clear
6:56 AM 48.9 °F 48.9 °F 100% 30.06 in 10.0 mi NNE 10.4 mph - N/A   Clear
7:56 AM 61.0 °F 57.0 °F 87% 30.07 in 10.0 mi Variable 4.6 mph - N/A   Clear
8:56 AM 66.9 °F 55.9 °F 68% 30.06 in 10.0 mi NNW 8.1 mph 18.4 mph N/A   Clear
9:56 AM 73.0 °F 51.1 °F 46% 30.06 in 10.0 mi North 8.1 mph 16.1 mph N/A   Clear
10:56 AM 73.9 °F 48.0 °F 40% 30.05 in 10.0 mi North 13.8 mph 21.9 mph N/A   Clear
11:56 AM 75.9 °F 46.0 °F 35% 30.04 in 10.0 mi North 10.4 mph 20.7 mph N/A   Clear
12:56 PM 79.0 °F 46.9 °F 32% 30.02 in 10.0 mi NNE 17.3 mph 23.0 mph N/A   Clear
1:56 PM 78.1 °F 46.0 °F 32% 29.99 in 10.0 mi Variable 4.6 mph 20.7 mph N/A   Clear
2:56 PM 80.1 °F 46.0 °F 30% 29.97 in 10.0 mi NNW 9.2 mph 18.4 mph N/A   Clear
3:56 PM 78.1 °F 44.1 °F 30% 29.96 in 10.0 mi North 9.2 mph 16.1 mph N/A   Clear
4:56 PM 78.1 °F 45.0 °F 31% 29.96 in 10.0 mi NNE 15.0 mph - N/A   Clear
5:56 PM 73.9 °F 48.0 °F 40% 29.96 in 10.0 mi NNE 13.8 mph - N/A   Clear
6:56 PM 63.0 °F 48.9 °F 60% 29.96 in 10.0 mi Calm Calm - N/A   Clear
7:56 PM 55.9 °F 48.0 °F 75% 29.97 in 10.0 mi NNE 8.1 mph - N/A   Clear
8:56 PM 51.1 °F 46.9 °F 86% 29.96 in 10.0 mi NNE 11.5 mph - N/A   Clear
9:56 PM 48.0 °F 46.0 °F 93% 29.97 in 10.0 mi Calm Calm - N/A   Clear
10:56 PM 48.9 °F 46.9 °F 93% 29.96 in 10.0 mi NNE 9.2 mph - N/A   Clear
11:56 PM 46.9 °F 45.0 °F 93% 29.95 in 10.0 mi Calm Calm - N/A   Clear